Weather History for Deming, NM

Change the Weather History Date:

Wednesday, December 11, 2013

  Actual Average Record
Temperature  
Mean Temperature 38 °F 42 °F  
Max Temperature 55 °F 57 °F 74 °F (1987)
Min Temperature 20 °F 27 °F 14 °F (1966)
Degree Days  
Heating Degree Days 28    
Moisture  
Dew Point 10 °F    
Average Humidity 36    
Maximum Humidity 57    
Minimum Humidity 15    
Precipitation  
Precipitation 0.00 in 0.04 in 0.65 in (1991)
Month to date precipitation T 0.35  
Year to date precipitation 9.64 11.01  
Sea Level Pressure  
Sea Level Pressure 30.32 in    
Wind  
Wind Speed 8 mph (East)    
Max Wind Speed 21 mph    
Max Gust Speed 24 mph    
Visibility 10 miles    
Events      
T = Trace of Precipitation, MM = Missing Value Source: NWS Daily Summary

Daily Weather History Graph

Daily Weather History Graph

Search for Another Location

Airport:

Trip Planner

Search our weather history database for the weather conditions in past years. The results will help you decide how hot, cold, wet, or windy it might be!

Date:

Astronomy

Dec. 11, 2013 Rise Set
Actual Time 7:02 AM MST 5:06 PM MST
Civil Twilight 6:35 AM MST 5:33 PM MST
Nautical Twilight 6:04 AM MST 6:04 PM MST
Astronomical Twilight 5:34 AM MST 6:33 PM MST
Moon 1:28 PM MST (12/11) 1:41 AM MST (12/11)
Length of Visible Light 10h 58m
Length of Day
10h 04m
Waxing Gibbous, 72% of the Moon is Illuminated
Dec 11
Waxing Gibbous
Dec 17
Full
Dec 25
Last Quarter
Jan 1
New
Jan 7
First Quarter

Hourly Weather History & Observations

Time (MST) Temp. Windchill Dew Point Humidity Pressure Visibility Wind Dir Wind Speed Gust Speed Precip Events Conditions
12:53 AM 24.1 °F - 7.0 °F 48% 30.25 in 10.0 mi Calm Calm - N/A   Clear
1:53 AM 23.0 °F 15.8 °F 5.0 °F 46% 30.24 in 10.0 mi NW 5.8 mph - N/A   Clear
2:53 AM 21.9 °F - 5.0 °F 48% 30.22 in 10.0 mi Calm Calm - N/A   Clear
3:53 AM 23.0 °F 17.0 °F 6.1 °F 48% 30.25 in 10.0 mi South 4.6 mph - N/A   Clear
4:53 AM 23.0 °F - 7.0 °F 50% 30.25 in 10.0 mi Calm Calm - N/A   Clear
5:53 AM 21.9 °F 17.2 °F 8.1 °F 55% 30.29 in 10.0 mi NNE 3.5 mph - N/A   Clear
6:53 AM 19.9 °F - 7.0 °F 57% 30.33 in 10.0 mi Calm Calm - N/A   Clear
7:53 AM 28.9 °F 21.9 °F 9.0 °F 43% 30.33 in 10.0 mi East 6.9 mph - N/A   Clear
8:53 AM 37.9 °F 30.0 °F 8.1 °F 29% 30.35 in 10.0 mi East 12.7 mph - N/A   Clear
9:53 AM 46.9 °F - 5.0 °F 18% 30.35 in 10.0 mi East 17.3 mph 23.0 mph N/A   Clear
10:53 AM 50.0 °F - 5.0 °F 16% 30.34 in 10.0 mi ENE 17.3 mph 24.2 mph N/A   Clear
11:53 AM 51.1 °F - 7.0 °F 17% 30.32 in 10.0 mi East 13.8 mph - N/A   Overcast
12:53 PM 54.0 °F - 10.0 °F 17% 30.29 in 10.0 mi East 13.8 mph - N/A   Partly Cloudy
1:53 PM 55.0 °F - 12.0 °F 18% 30.29 in 10.0 mi East 11.5 mph - N/A   Clear
2:53 PM 55.0 °F - 12.0 °F 18% 30.28 in 10.0 mi ESE 11.5 mph 19.6 mph N/A   Clear
3:53 PM 53.1 °F - 12.0 °F 20% 30.30 in 10.0 mi East 11.5 mph - N/A   Clear
4:53 PM 50.0 °F - 12.9 °F 23% 30.32 in 10.0 mi East 9.2 mph - N/A   Clear
5:53 PM 44.1 °F 39.0 °F 12.9 °F 28% 30.36 in 10.0 mi East 9.2 mph - N/A   Clear
6:53 PM 39.0 °F 35.7 °F 14.0 °F 36% 30.41 in 10.0 mi East 4.6 mph - N/A   Clear
7:53 PM 39.9 °F 34.5 °F 15.1 °F 36% 30.40 in 10.0 mi East 8.1 mph - N/A   Clear
8:53 PM 39.0 °F 32.3 °F 17.1 °F 41% 30.38 in 10.0 mi ENE 10.4 mph - N/A   Clear
9:53 PM 37.9 °F 31.5 °F 17.1 °F 43% 30.38 in 10.0 mi ENE 9.2 mph - N/A   Scattered Clouds
10:53 PM 37.0 °F 31.0 °F 18.0 °F 46% 30.38 in 10.0 mi ENE 8.1 mph - N/A   Clear
11:53 PM 36.0 °F 29.0 °F 15.1 °F 43% 30.35 in 10.0 mi East 9.2 mph - N/A   Partly Cloudy